Карточка аэропорта URKA

Внимание!
Информация на этой странице в стадии наполнения.
Если вы не увидели какой-то информации, или заметили неточность - пожалуйста сообщите нам!
Спасибо!
Команда RU-STAFF
Название аэропортаВитязево
Название аэропорта (англ.)Vityazevo
Превышение176 ft. (53.6 m.)
Координаты45°0.13200000000012', 37°20.832'
Высота перехода4000 ft
Эшелон переходаFL50 (QNH >= 1013); FL60 (QNH 977-1012); FL70 (QNH < 977)
Коды ответчика1040-1047
Зона ОрВДРостов-на-Дону РПИ (URRV)
Данные METARURKA 131630Z 21005MPS CAVOK 12/10 Q1018 R22/010070 TEMPO BKN004 RMK QFE758/1011
Проноз погоды (TAF)URKA 131342Z 1315/1415 21005G13MPS 9999 SCT016 TEMPO 1315/1318 SCT011 FM131800 23005G14MPS 6000 SCT016 TEMPO 1318/1406 2100 BR BKN002
NOTAMshow/hide NOTAM
AWOS   TABLE

Информация о ВПП

ВПП Длина ВПП (м.) Покрытие Курс ВПП Частота ILS
042500Цементобетон36109.1
222500Цементобетон216 

Диспетчерские позиции

Позывной Наименование органа УВД Частота
URKAFM1119,0
URKA_GNDАнапа-Руление119.0
URKA_R_APPАнапа-Круг118.7
URKA_TWRАнапа-Старт119.8



Спутниковое изображение